Location: Sobotiste
(48.7170°N, 17.4000°E)
Time: 19:12:05
(UTC+02:00)

CUTE-I - Pass Details

Date: 18 March 2026
Orbit: 804 x 818 km, 98.7° (Epoch: 18 April)

Event Time Altitude Azimuth Distance (km) Brightness Sun altitude
Rises 04:44:40 0° 31° (NNE) 3,329 ? -12.8°
Reaches altitude 10° 04:48:24 10° 58° (ENE) 2,392 ? -12.2°
Maximum altitude 04:50:51 13° 86° (E) 2,169 ? -11.8°
Drops below altitude 10° 04:53:18 10° 114° (ESE) 2,386 ? -11.4°
Sets 04:57:00 0° 141° (SE) 3,313 ? -10.8°
